Theta_e
312 317 316 315 319 314 319 324 324 316 319 314 315 316 316 311 306 306 306 311 321 323 324 326 328 329 329 331 333 334 333 333 331 329 328 329 329 329 329 328 328 326 326 327
317 318 313 308 312 313 317 321 321 317 311 312 313 311 310 311 309 309 308 306 312 319 318 321 325 327 328 329 330 332 333 333 333 332 331 330 331 330 329 328 327 327 327 327
317 316 312 312 311 312 310 311 311 314 308 307 307 311 309 310 306 306 304 305 306 310 316 316 315 323 326 327 328 329 331 333 333 333 332 331 330 330 330 329 329 328 326 327
317 315 314 314 314 311 313 310 309 309 310 310 306 312 309 311 314 306 307 305 305 304 306 309 309 312 319 325 327 328 329 330 331 333 332 331 330 330 330 331 329 328 326 326
318 312 317 316 314 312 313 309 310 310 311 310 308 307 306 305 311 314 309 306 305 304 304 305 306 310 314 317 323 326 328 329 330 331 332 332 331 331 332 332 332 330 326 324
309 307 315 315 312 311 307 310 310 307 311 317 311 308 308 308 307 307 306 306 307 306 304 303 304 305 307 309 309 315 323 327 328 330 330 331 331 331 332 332 333 330 325 324
308 306 305 307 309 309 312 316 319 320 319 318 303 307 314 307 305 305 306 306 305 305 304 302 301 302 304 305 306 307 313 322 325 327 329 330 331 331 331 332 332 328 326 325
313 314 305 304 307 310 314 318 317 318 314 313 302 309 311 305 306 303 301 300 300 300 300 301 301 303 305 305 307 309 314 318 321 325 327 328 330 330 330 331 332 328 326 324
310 311 304 304 304 309 308 317 310 308 296 305 305 304 304 303 303 302 301 301 302 302 302 301 301 303 305 306 307 310 313 315 320 324 327 328 328 328 329 331 331 330 327 326
306 309 305 305 305 305 308 308 311 309 312 308 307 304 309 306 304 303 302 302 303 303 302 302 303 304 305 307 309 310 311 312 314 317 322 326 325 327 327 328 329 329 327 326
304 307 307 305 306 306 305 308 306 308 308 311 309 309 301 304 305 305 304 301 301 303 302 303 303 304 306 308 310 311 310 309 308 309 309 310 318 323 324 326 328 328 325 323
304 305 307 306 305 303 304 306 309 310 308 305 307 311 302 301 300 300 301 300 301 302 302 302 303 303 304 306 309 310 310 311 310 310 310 309 309 314 319 323 325 325 323 320
304 306 303 308 307 305 305 304 307 307 305 307 307 310 305 307 307 302 302 302 302 302 302 302 301 301 302 305 307 308 309 310 310 311 311 310 311 314 317 321 321 320 318 313
308 306 307 309 307 306 308 305 303 306 307 310 307 308 308 305 303 302 302 300 302 302 302 301 301 301 301 303 304 305 306 308 309 309 310 312 313 314 316 316 314 312 310 308
306 307 305 306 305 307 307 307 304 305 308 309 309 307 307 304 304 303 302 302 303 303 302 302 302 300 300 301 302 304 305 305 307 307 308 309 310 310 310 309 308 307 305 302
304 305 305 304 307 305 305 306 307 307 307 306 307 306 307 303 300 302 303 302 302 303 304 302 301 299 299 300 301 302 303 303 304 304 305 306 305 305 305 304 302 300 298 296
305 302 300 308 307 306 309 308 307 307 306 307 308 309 304 302 302 304 303 302 303 304 303 302 302 300 300 300 302 301 302 302 301 302 302 302 302 301 299 298 297 295 293 292
307 305 302 297 303 311 308 305 307 307 308 307 308 306 305 306 305 303 302 303 303 302 302 302 302 301 300 300 300 301 301 300 299 299 299 299 299 298 296 294 293 292 292 292
303 305 303 309 302 307 308 304 303 305 308 306 306 304 302 302 302 302 300 301 303 301 302 303 303 302 300 300 300 300 298 298 297 296 296 296 296 295 293 292 292 292 292 291
301 306 309 304 313 311 307 305 302 305 309 304 303 303 302 300 304 307 304 300 301 301 303 303 304 302 301 299 299 298 295 295 294 295 296 295 295 294 292 292 291 291 291 291
298 298 310 304 310 302 303 302 303 308 308 302 303 304 302 303 306 302 301 302 300 300 301 303 303 301 299 298 297 295 294 293 295 296 296 294 293 293 292 292 291 291 290 289
306 306 305 291 308 310 298 301 308 306 301 301 302 302 301 300 301 301 300 300 298 297 299 300 299 298 298 297 296 294 293 294 295 295 294 293 292 292 291 291 290 289 289 288
304 305 303 307 306 301 297 302 301 300 301 301 304 303 303 302 300 299 299 297 295 294 295 296 297 295 295 296 296 294 293 294 294 293 292 292 291 291 291 290 289 288 287 287
300 296 304 304 299 300 298 299 298 298 300 299 300 300 300 302 299 298 296 294 293 291 293 294 294 292 292 293 294 294 293 293 292 290 290 290 290 290 289 289 288 288 287 286
302 302 298 298 301 301 300 297 298 296 296 297 297 298 297 297 297 296 291 288 290 290 291 292 293 292 292 292 292 293 293 293 290 289 289 289 288 288 288 287 287 287 288 289
299 301 307 307 301 302 302 297 296 295 296 295 296 296 294 294 294 290 287 287 288 289 290 290 291 291 291 291 291 292 292 291 290 288 287 287 286 286 285 285 286 287 289 288
Wind_Speed
1 4 14 15 8 5 6 3 6 0 4 3 6 11 16 11 5 8 10 9 12 14 13 21 27 30 30 31 32 33 33 32 31 30 27 25 25 23 20 19 17 16 15 14
4 10 5 8 9 6 7 4 2 3 3 4 6 10 13 10 9 11 13 10 13 8 7 15 26 29 33 34 37 35 36 35 34 34 33 29 29 25 23 21 18 18 18 17
7 5 7 6 4 8 4 7 5 4 3 2 4 10 10 10 9 9 8 9 7 13 14 12 20 30 32 36 38 38 39 39 37 37 34 29 22 19 24 25 25 20 18 20
6 2 14 9 8 6 6 7 6 4 2 3 1 6 6 8 18 10 11 9 12 12 10 10 19 27 34 38 38 40 38 39 38 38 36 34 29 24 28 28 25 21 18 20
10 11 14 15 8 8 5 7 8 5 4 4 4 3 7 5 13 18 16 11 14 14 13 16 21 32 38 35 37 39 39 39 38 39 37 37 30 31 30 29 27 21 16 18
6 1 11 8 7 13 8 6 8 5 3 5 5 6 6 6 8 6 7 14 16 15 13 16 18 25 29 29 33 36 39 41 41 40 39 39 34 32 31 31 25 23 20 19
3 3 2 6 7 4 7 13 2 2 3 8 3 6 21 6 5 6 9 10 11 12 10 11 10 18 28 31 31 33 37 39 40 40 39 40 39 37 36 34 29 26 25 22
10 6 9 5 7 9 10 9 5 6 5 3 1 9 9 7 10 7 8 9 7 9 7 9 12 20 27 31 30 31 33 35 36 35 33 35 37 36 35 33 30 28 29 24
5 4 3 4 5 11 5 9 6 5 2 2 5 7 10 9 10 7 10 8 12 10 9 10 9 16 22 28 29 31 30 30 31 34 32 29 28 31 33 30 27 24 23 24
6 4 1 1 5 2 12 11 5 3 5 5 5 5 9 3 8 10 9 10 14 9 6 6 6 13 19 22 21 22 24 25 25 27 30 32 29 28 29 28 27 25 25 25
6 4 1 7 9 10 4 9 5 6 6 6 2 6 8 9 10 9 10 7 8 7 9 8 7 12 14 16 18 20 20 22 23 23 24 25 28 26 26 28 27 27 28 26
6 5 4 8 3 4 7 9 17 5 6 2 2 10 6 8 7 7 9 9 8 7 7 6 10 15 16 15 15 17 18 19 20 21 22 24 25 27 26 26 29 30 31 29
8 3 3 5 4 1 7 7 13 9 3 8 6 10 5 16 20 8 8 9 7 7 5 4 4 9 16 19 18 17 17 17 17 17 20 21 23 26 29 30 33 32 32 30
14 4 10 14 3 8 8 7 6 10 5 17 8 20 25 5 7 6 7 9 8 7 7 6 6 8 12 17 17 16 16 17 19 19 21 24 26 28 32 35 34 33 31 31
7 11 2 2 4 5 7 11 12 12 22 12 23 19 28 9 11 10 6 4 5 8 9 10 10 9 14 17 18 18 18 19 18 20 23 25 27 29 32 33 33 32 31 31
4 8 7 2 3 5 1 10 19 22 21 13 21 13 15 4 6 8 11 7 9 10 13 9 7 7 13 19 23 24 22 21 22 23 23 25 27 29 32 32 32 32 32 32
12 7 4 13 6 5 5 21 12 9 11 17 17 35 7 7 9 11 11 8 13 15 6 10 14 15 22 26 29 28 27 24 24 24 24 27 29 31 32 33 33 34 33 31
11 8 3 3 4 9 13 11 18 22 20 18 21 4 8 17 15 10 8 11 13 11 9 10 11 19 24 27 29 29 27 27 26 26 28 29 32 34 34 34 34 34 32 30
1 5 2 5 3 9 22 4 6 9 25 17 18 10 7 7 2 12 12 11 15 11 12 17 20 21 23 28 32 32 31 31 30 30 32 33 34 36 36 35 34 32 31 28
4 6 8 3 7 15 1 17 10 5 22 12 14 15 16 8 7 16 4 7 11 9 9 14 19 23 27 29 34 34 32 34 34 37 37 36 37 38 37 35 34 31 29 27
4 2 16 6 7 9 7 5 10 10 7 6 6 11 9 10 14 1 3 2 4 5 8 12 20 25 27 30 34 30 31 33 36 37 37 38 37 38 37 35 32 30 28 25
10 10 6 3 11 20 5 4 21 8 2 4 4 3 6 7 3 3 4 4 7 6 5 6 14 17 21 27 32 24 26 28 35 37 38 38 36 36 34 34 30 29 28 27
3 8 7 12 9 2 6 1 2 3 5 4 2 2 0 1 1 3 3 4 5 7 4 3 11 13 18 25 31 25 26 33 36 37 37 38 36 35 34 34 31 30 29 28
3 1 4 5 4 5 7 4 4 3 2 3 1 2 2 2 3 3 3 4 3 4 4 2 7 10 14 19 22 21 25 32 36 35 37 39 37 36 34 32 32 33 31 28
4 9 5 2 1 1 5 7 6 5 5 4 3 2 4 4 3 3 3 3 4 5 4 1 6 8 10 14 18 20 25 31 32 32 34 36 35 36 35 33 33 31 28 28
5 6 8 7 7 4 3 9 6 7 6 6 6 4 4 3 4 3 3 3 3 3 3 1 2 4 8 13 17 20 23 30 33 30 32 33 33 33 33 33 27 26 24 25
Wind_Direction
34 128 199 190 200 112 143 155 201 280 245 232 230 246 247 245 225 248 237 232 228 230 237 219 221 220 222 223 224 222 219 221 219 218 217 221 220 222 227 227 230 233 233 234
100 210 165 143 159 152 140 132 202 293 269 184 293 261 261 243 234 229 234 222 232 221 214 217 216 218 220 222 222 223 226 222 222 224 223 219 222 227 233 234 227 236 236 234
161 154 140 136 147 159 156 148 160 210 295 221 286 277 242 242 231 236 237 226 232 228 218 225 214 214 216 222 224 223 226 227 224 226 225 223 223 227 225 224 227 227 237 236
212 193 169 173 185 157 185 166 146 117 47 261 107 285 265 248 237 222 236 220 230 230 235 216 213 218 218 221 226 227 226 229 229 228 221 218 211 209 224 232 235 228 237 246
193 159 177 204 162 164 202 149 175 146 82 359 207 283 270 271 245 235 224 225 230 225 219 234 217 221 221 221 222 226 227 228 229 227 223 222 215 220 227 231 234 230 227 241
168 160 179 185 159 171 133 76 37 43 82 270 212 204 240 219 228 237 225 228 225 228 216 231 237 230 231 223 224 225 224 226 226 227 224 223 219 219 224 228 230 220 224 229
144 170 177 129 113 116 129 152 145 162 202 238 293 172 247 255 269 242 238 246 229 227 225 213 201 210 223 219 218 218 219 220 223 225 224 224 225 225 225 230 223 210 216 218
163 210 165 182 159 155 164 172 164 170 201 245 141 222 246 236 254 244 243 252 286 267 238 234 226 219 224 221 214 210 211 216 221 220 218 222 224 224 225 227 225 215 214 213
132 212 36 152 137 136 180 202 159 85 81 52 217 286 295 257 278 276 251 263 261 249 235 236 235 234 227 220 214 209 208 212 215 219 215 213 215 219 225 225 222 219 215 200
187 123 12 90 96 38 183 149 162 200 205 245 245 258 233 319 260 270 283 248 244 266 262 260 235 222 219 219 212 208 208 207 207 209 216 216 215 219 225 223 217 212 200 191
157 101 351 141 207 164 135 186 192 162 180 190 251 249 196 223 226 236 262 295 289 259 230 209 198 202 193 199 200 200 204 202 202 205 208 211 211 212 218 217 210 198 188 184
187 115 149 205 258 190 185 190 199 185 220 292 126 269 178 231 240 235 275 280 270 253 258 221 186 179 179 189 201 203 199 201 203 205 209 210 208 205 205 207 193 187 179 176
174 176 77 9 343 206 213 198 202 214 62 200 161 256 156 240 262 235 252 271 286 264 240 229 187 185 183 188 199 201 201 199 196 195 196 195 194 192 196 193 183 178 174 171
162 159 191 202 158 131 187 171 185 193 210 236 227 254 255 281 268 270 245 257 269 244 225 195 198 210 202 191 194 197 195 194 189 184 186 181 183 187 187 180 175 172 173 169
158 219 165 17 144 144 172 191 182 194 221 205 240 229 260 214 258 278 263 253 244 246 222 207 205 201 190 191 190 197 199 195 186 185 182 178 179 180 177 174 171 168 169 166
178 240 158 223 119 140 184 211 201 211 221 222 241 267 255 240 220 257 252 252 258 244 235 200 204 198 198 196 196 195 194 191 189 188 182 175 173 173 172 170 167 164 164 162
173 135 115 235 148 91 309 226 206 205 207 208 231 244 160 233 224 239 245 226 249 249 242 199 199 203 202 200 200 195 194 190 187 187 182 177 174 171 170 167 164 164 162 160
186 171 125 160 82 211 261 165 215 224 234 221 244 249 213 234 248 265 231 237 244 236 224 211 207 209 207 202 201 197 193 190 188 187 183 181 178 174 170 168 167 164 164 164
78 146 105 160 186 300 273 209 154 179 248 232 244 241 221 239 263 263 227 220 235 223 224 224 212 208 198 199 200 195 190 191 188 186 185 182 179 174 171 171 170 168 168 168
76 185 186 142 209 230 345 207 161 124 268 190 198 216 217 159 225 251 264 225 249 241 229 211 209 200 199 198 199 189 183 186 187 189 187 184 182 179 176 175 173 174 174 172
103 48 201 178 222 273 238 181 129 190 253 207 195 224 188 197 228 274 14 29 1 334 263 230 202 192 197 198 195 186 184 190 191 191 188 186 186 184 181 178 178 177 175 175
160 163 197 101 218 253 158 38 179 206 233 182 201 196 203 247 280 350 7 0 356 354 350 215 196 195 196 197 192 187 193 191 193 191 189 187 186 186 182 181 179 181 178 178
192 184 172 188 210 223 199 169 186 181 170 214 160 162 219 262 344 337 339 5 356 349 343 227 204 192 199 203 198 189 193 193 190 189 187 186 186 187 186 184 182 181 183 181
266 187 173 106 223 207 193 210 209 204 137 122 71 105 111 75 18 55 29 9 12 360 345 278 179 185 197 205 203 203 193 192 188 180 183 186 185 186 188 190 191 189 186 188
173 140 159 291 287 337 238 211 163 137 114 113 94 95 95 101 64 66 54 18 12 11 1 228 198 198 205 206 205 205 198 192 180 180 182 183 187 189 188 194 195 195 198 205
185 164 182 215 193 156 213 159 162 140 150 154 130 99 48 71 96 88 72 33 7 17 20 93 174 195 196 199 200 197 198 194 184 176 179 183 187 188 190 192 193 203 215 220